Temp
7 6 7 6 9 7 7 7 7 10 11 9 10 10 10 11 11 10 11 10 9 10 11 12 13 14 14 12 12 12 12 13 13 13 14 14 14 13 13 14 14 15 13 14
7 6 7 8 9 9 9 8 8 9 10 10 10 9 10 11 10 12 10 10 11 10 11 12 13 13 12 13 13 12 11 12 12 14 15 15 13 13 14 14 14 13 13 13
6 8 10 10 8 8 8 9 9 9 10 9 9 10 9 11 11 12 12 12 11 11 11 10 10 11 12 15 13 12 12 12 12 13 13 13 12 13 12 13 13 13 13 13
7 9 9 8 8 8 6 10 9 9 7 7 10 9 9 10 10 11 10 10 12 11 11 11 11 12 12 14 12 11 12 12 12 12 12 13 14 13 12 13 13 13 13 13
7 8 8 8 8 8 7 8 7 8 7 8 10 9 9 9 9 9 9 8 10 11 13 11 11 13 11 12 11 12 12 12 12 12 13 12 13 13 14 12 12 13 13 13
7 9 9 9 8 8 8 8 8 7 7 7 8 9 7 7 9 9 8 8 10 11 12 12 12 12 12 11 11 11 12 12 12 13 13 13 13 13 13 13 13 12 13 13
5 7 7 9 7 7 7 5 5 4 4 8 8 8 6 8 8 8 7 8 8 10 12 12 12 11 11 11 11 11 11 11 12 12 11 12 12 13 12 12 13 13 13 13
2 3 7 8 8 7 6 6 6 6 5 7 8 7 6 9 8 8 7 8 8 9 10 11 10 11 11 11 11 11 11 11 11 12 11 11 11 11 12 11 13 13 14 14
3 5 7 7 8 7 6 5 6 7 7 4 6 7 9 8 8 8 8 8 8 8 9 9 10 10 11 11 10 11 11 10 10 11 10 10 11 10 12 11 12 12 13 14
5 3 6 7 7 7 6 6 6 4 4 6 7 6 7 7 7 8 8 7 8 8 9 9 9 10 10 11 10 10 10 10 10 10 10 10 10 10 10 10 11 11 12 12
4 4 5 5 5 4 4 4 4 3 4 3 2 7 6 7 8 6 7 8 8 8 8 9 9 10 10 11 11 11 10 10 10 10 10 10 10 11 11 11 10 11 11 11
4 3 0 5 6 5 5 4 2 2 3 4 2 6 7 6 7 6 6 6 7 8 8 8 9 10 11 11 11 11 10 11 11 10 10 10 10 11 11 11 10 11 10 11
4 -0 -4 1 3 4 4 4 4 1 -0 3 2 4 7 6 7 7 6 7 7 7 7 8 8 9 9 10 11 11 11 11 11 11 10 10 11 10 10 10 11 10 10 10
4 -1 -1 -1 1 2 2 4 4 1 -1 -0 3 3 5 4 6 6 6 6 6 6 6 7 7 7 8 9 10 10 10 11 11 12 10 10 10 10 10 9 10 10 10 10
2 -2 1 3 3 4 4 4 5 -0 2 0 5 5 5 4 4 4 5 6 6 6 6 6 7 7 8 8 8 9 9 10 10 11 11 10 10 10 10 10 10 10 11 11
1 -2 -4 -2 4 3 4 5 5 5 6 5 5 5 4 5 4 4 4 5 5 5 5 6 6 7 7 8 8 8 8 9 9 10 10 10 9 10 10 11 11 10 11 10
0 -3 -3 1 2 0 1 5 6 6 6 6 3 5 4 6 5 3 4 4 4 4 5 5 5 6 7 7 8 9 9 9 9 9 9 10 10 10 10 10 11 11 10 10
1 -2 -2 -2 -2 1 5 6 7 6 5 5 4 4 4 5 4 4 4 4 4 4 5 5 5 6 6 7 8 8 9 9 10 10 9 9 10 10 10 10 10 10 11 11
0 -1 -1 -0 -2 3 6 5 5 5 5 4 3 3 4 5 4 4 4 4 4 4 4 4 5 6 6 7 7 8 8 9 9 9 10 10 10 10 10 10 10 10 10 10
1 -1 -1 -1 2 5 7 6 6 6 4 4 4 3 3 4 3 2 4 4 4 4 4 4 4 5 5 6 7 7 8 8 8 9 9 10 9 9 10 9 10 10 9 9
-3 -4 -1 -2 -1 3 4 5 6 6 6 4 5 5 4 2 3 4 4 4 4 3 3 4 4 4 5 5 6 6 7 7 7 8 8 8 8 9 8 8 8 8 8 8
2 -1 -1 -1 -0 4 5 4 5 5 5 6 5 5 5 5 4 4 3 3 3 4 3 3 4 4 4 4 5 5 6 6 6 6 7 7 7 7 7 7 6 6 6 6
3 3 3 2 3 5 6 7 8 7 7 6 6 6 5 4 4 3 3 3 3 3 3 3 3 4 4 4 4 4 4 4 4 5 5 5 6 6 6 6 5 4 4 4
3 3 3 4 5 3 7 7 7 7 7 6 6 5 4 4 3 2 2 2 2 2 3 3 3 3 4 4 4 4 4 3 3 4 4 4 4 4 4 2 2 2 3 3
3 2 2 1 2 4 6 7 8 6 6 6 5 4 4 3 2 2 1 1 1 2 2 2 2 3 4 4 4 3 3 3 3 3 3 2 2 2 2 2 2 2 2 2
2 2 3 4 7 7 8 9 7 6 6 6 5 4 3 2 2 1 1 1 1 1 1 2 2 2 3 4 4 3 3 3 3 3 3 2 2 2 2 2 2 2 2 2
Height
1476 1477 1472 1468 1463 1466 1465 1464 1460 1448 1441 1440 1431 1426 1418 1414 1408 1406 1402 1400 1399 1399 1401 1405 1407 1414 1426 1435 1436 1439 1438 1438 1448 1456 1459 1466 1471 1478 1483 1488 1494 1500 1508 1514
1475 1472 1462 1459 1459 1458 1456 1458 1453 1443 1437 1437 1429 1426 1423 1408 1401 1400 1400 1396 1393 1393 1388 1395 1405 1410 1423 1432 1430 1435 1440 1443 1448 1456 1458 1462 1468 1471 1481 1486 1493 1499 1506 1512
1474 1464 1458 1456 1458 1458 1455 1452 1449 1447 1436 1428 1429 1425 1422 1410 1404 1401 1396 1389 1389 1393 1397 1401 1407 1415 1421 1416 1424 1434 1435 1444 1449 1454 1457 1461 1467 1469 1476 1486 1491 1498 1504 1511
1467 1460 1458 1458 1459 1458 1460 1446 1447 1444 1447 1450 1428 1436 1427 1418 1410 1403 1400 1394 1389 1395 1400 1402 1408 1410 1410 1413 1428 1431 1436 1443 1446 1449 1452 1455 1460 1468 1475 1481 1490 1495 1502 1508
1467 1460 1458 1459 1456 1453 1454 1447 1447 1445 1446 1444 1432 1436 1435 1428 1421 1415 1409 1400 1396 1394 1398 1406 1412 1413 1417 1419 1428 1434 1436 1438 1443 1445 1449 1454 1457 1465 1474 1480 1488 1492 1500 1506
1464 1459 1457 1456 1451 1450 1447 1444 1442 1442 1446 1450 1442 1438 1444 1437 1429 1419 1414 1406 1401 1400 1404 1408 1413 1413 1419 1427 1431 1434 1433 1434 1437 1442 1448 1451 1455 1462 1469 1477 1484 1489 1496 1502
1472 1463 1459 1457 1455 1449 1449 1451 1459 1466 1470 1446 1448 1448 1461 1445 1434 1433 1428 1419 1409 1403 1405 1407 1411 1420 1424 1428 1429 1429 1430 1429 1432 1433 1441 1449 1455 1461 1469 1478 1481 1483 1491 1497
1489 1487 1464 1458 1458 1458 1455 1452 1457 1459 1463 1451 1449 1462 1465 1452 1445 1437 1432 1424 1419 1411 1411 1415 1417 1425 1426 1429 1431 1432 1430 1426 1423 1434 1440 1445 1453 1458 1464 1474 1480 1484 1489 1492
1487 1477 1466 1462 1458 1458 1456 1461 1458 1453 1452 1470 1470 1464 1457 1456 1451 1446 1436 1430 1428 1424 1420 1417 1420 1423 1428 1430 1431 1432 1432 1433 1433 1436 1442 1450 1453 1457 1461 1472 1477 1484 1490 1495
1480 1487 1471 1465 1461 1459 1460 1460 1463 1468 1479 1468 1471 1471 1470 1467 1461 1452 1445 1437 1434 1430 1429 1429 1427 1427 1431 1432 1431 1433 1435 1437 1437 1439 1444 1450 1453 1458 1463 1471 1477 1482 1488 1491
1481 1484 1481 1473 1474 1476 1469 1472 1471 1475 1474 1492 1499 1475 1477 1470 1465 1460 1452 1448 1440 1435 1434 1433 1433 1433 1434 1432 1432 1435 1436 1440 1443 1445 1448 1452 1455 1458 1463 1468 1473 1478 1483 1488
1484 1488 1501 1481 1475 1474 1475 1477 1480 1487 1488 1481 1491 1482 1478 1473 1466 1461 1457 1451 1448 1445 1442 1439 1437 1437 1436 1436 1436 1437 1437 1439 1441 1446 1449 1452 1455 1458 1462 1465 1469 1475 1479 1484
1485 1502 1525 1499 1487 1479 1483 1479 1477 1485 1492 1490 1501 1491 1477 1474 1471 1468 1463 1458 1455 1451 1447 1444 1442 1439 1437 1436 1439 1440 1442 1442 1443 1445 1448 1451 1455 1459 1461 1464 1466 1469 1474 1477
1485 1502 1510 1518 1505 1496 1492 1482 1478 1485 1504 1501 1491 1487 1479 1479 1476 1473 1469 1466 1462 1460 1456 1452 1447 1444 1444 1443 1444 1445 1444 1446 1447 1449 1451 1452 1452 1461 1460 1461 1463 1465 1465 1466
1490 1510 1502 1495 1493 1489 1488 1483 1480 1494 1488 1500 1482 1480 1478 1479 1478 1475 1472 1470 1467 1465 1460 1458 1455 1454 1452 1451 1448 1447 1448 1450 1449 1450 1451 1454 1457 1459 1460 1460 1462 1463 1465 1465
1495 1512 1513 1510 1492 1493 1488 1482 1479 1479 1477 1478 1479 1477 1477 1476 1476 1476 1476 1475 1470 1467 1466 1466 1462 1461 1457 1455 1454 1454 1453 1453 1450 1451 1452 1457 1459 1459 1460 1461 1462 1463 1464 1464
1500 1510 1516 1509 1498 1500 1503 1479 1478 1475 1474 1475 1485 1475 1476 1474 1474 1474 1473 1473 1473 1472 1468 1466 1466 1464 1462 1460 1459 1458 1456 1454 1452 1453 1455 1456 1457 1458 1459 1459 1460 1461 1460 1462
1500 1509 1512 1519 1513 1514 1480 1473 1473 1476 1474 1473 1473 1473 1474 1473 1474 1475 1474 1473 1473 1472 1471 1469 1466 1464 1463 1461 1460 1459 1458 1457 1457 1456 1456 1456 1457 1458 1459 1460 1460 1460 1463 1463
1498 1504 1513 1515 1522 1493 1476 1475 1475 1476 1472 1469 1472 1472 1472 1472 1473 1474 1474 1472 1472 1471 1470 1468 1466 1465 1464 1462 1460 1460 1458 1458 1458 1458 1457 1458 1458 1459 1459 1459 1458 1459 1459 1460
1500 1502 1511 1516 1509 1492 1470 1470 1471 1472 1480 1464 1467 1470 1472 1474 1476 1473 1472 1471 1471 1470 1469 1468 1466 1464 1462 1461 1461 1460 1459 1459 1458 1456 1457 1457 1457 1459 1458 1457 1457 1455 1455 1456
1513 1514 1513 1517 1514 1486 1470 1469 1472 1478 1472 1461 1464 1467 1470 1471 1470 1471 1471 1470 1470 1470 1469 1467 1466 1465 1463 1462 1460 1459 1458 1457 1458 1456 1456 1455 1454 1454 1453 1452 1453 1452 1451 1451
1496 1509 1512 1510 1511 1489 1466 1471 1475 1464 1459 1460 1463 1464 1466 1466 1468 1468 1468 1468 1468 1467 1466 1466 1465 1465 1464 1463 1462 1460 1459 1457 1455 1454 1453 1452 1451 1450 1449 1449 1449 1447 1446 1447
1494 1485 1487 1489 1477 1461 1460 1456 1457 1458 1459 1459 1460 1461 1463 1464 1465 1466 1465 1465 1466 1466 1465 1464 1464 1463 1463 1463 1461 1460 1459 1457 1456 1453 1452 1450 1447 1447 1445 1442 1442 1442 1443 1443
1479 1477 1480 1475 1458 1456 1456 1455 1454 1455 1456 1457 1458 1459 1460 1461 1463 1462 1462 1463 1462 1462 1463 1462 1461 1462 1462 1461 1460 1459 1456 1455 1453 1452 1450 1447 1444 1441 1440 1438 1438 1438 1438 1439
1473 1474 1472 1470 1455 1452 1449 1447 1449 1451 1453 1454 1455 1456 1458 1458 1459 1459 1458 1459 1458 1458 1458 1459 1458 1458 1458 1458 1458 1457 1455 1453 1451 1449 1447 1446 1444 1442 1440 1438 1437 1435 1434 1434
1462 1460 1464 1456 1442 1443 1441 1440 1443 1446 1447 1450 1452 1453 1454 1455 1456 1456 1456 1456 1455 1454 1455 1455 1455 1455 1455 1454 1454 1454 1453 1451 1449 1447 1446 1444 1442 1440 1438 1437 1434 1432 1431 1429
Wind_Speed
6 2 7 10 8 9 6 8 11 12 11 8 9 18 20 20 22 20 21 18 15 19 20 28 22 19 25 18 17 16 21 33 38 40 38 41 47 43 41 43 40 38 35 33
4 7 11 12 11 11 11 8 12 8 12 6 13 13 12 15 6 13 6 15 16 13 15 23 25 27 27 21 16 15 26 22 35 39 38 37 50 42 45 40 36 37 35 33
5 6 6 3 5 6 5 5 5 10 12 5 4 4 19 23 13 14 13 19 13 27 30 29 27 26 26 20 13 22 27 29 35 42 42 38 32 33 40 38 37 38 35 32
5 3 4 5 4 3 4 3 7 10 8 3 3 3 17 19 23 20 24 26 19 27 27 27 24 18 11 13 17 17 20 36 29 48 44 44 42 42 49 45 40 38 35 34
6 3 4 2 5 2 6 8 6 7 5 3 4 3 11 15 17 15 20 23 3 22 28 23 20 14 12 11 22 20 20 36 33 48 48 45 43 41 43 37 39 38 37 34
5 6 0 3 7 4 7 3 3 1 1 3 9 3 7 15 16 18 24 33 21 10 17 19 17 13 11 15 13 14 23 28 35 41 43 43 40 38 34 38 40 40 38 37
6 5 6 3 7 5 8 4 3 4 4 3 5 7 5 16 15 14 15 27 31 16 11 17 20 17 15 13 5 5 14 17 37 40 49 43 38 38 34 36 39 39 40 37
4 7 6 9 1 4 5 3 2 2 1 2 6 4 7 13 14 18 19 30 27 29 15 14 11 10 12 8 3 3 3 6 40 42 40 40 39 39 34 30 36 37 39 38
5 5 5 5 4 3 7 4 1 2 3 5 4 6 2 17 15 10 18 28 25 25 18 14 4 2 9 3 4 6 1 2 7 26 32 30 36 34 31 27 29 29 32 32
5 3 3 6 8 8 4 4 3 3 3 4 2 3 4 13 13 14 15 19 26 27 26 19 11 5 8 9 9 10 10 3 6 12 34 33 28 27 31 31 32 32 31 29
4 3 6 5 5 6 6 5 4 3 2 3 2 3 8 10 11 11 14 21 26 30 24 22 16 11 9 2 2 5 10 15 12 16 20 32 29 31 29 29 29 33 27 29
4 3 1 2 4 4 4 4 2 3 5 3 3 2 6 8 9 16 19 24 26 26 27 23 20 13 11 13 8 6 1 9 11 20 23 22 23 23 28 29 26 26 28 29
3 3 3 8 6 6 5 5 3 3 2 2 3 2 5 9 12 17 19 25 26 27 27 28 25 20 19 12 8 8 6 2 8 9 21 27 30 29 25 31 37 38 35 40
4 3 5 4 5 3 5 6 4 4 3 2 1 3 5 8 9 12 19 20 22 23 24 25 27 25 20 14 6 5 4 3 2 4 17 18 21 12 5 13 10 12 17 25
4 3 3 2 4 3 3 4 6 4 3 3 3 3 1 3 3 7 11 15 18 21 23 23 23 22 21 19 16 10 4 1 2 2 7 12 10 4 2 8 10 11 14 14
3 1 3 4 4 4 3 4 3 3 2 3 3 3 1 4 2 9 10 11 14 16 17 17 17 18 19 19 18 15 14 9 4 4 6 3 6 6 8 12 5 4 8 12
3 3 3 3 6 6 5 4 4 2 3 3 3 4 1 2 3 4 6 8 10 12 15 15 14 13 14 15 14 13 13 13 11 7 1 4 3 4 4 7 15 10 14 11
3 2 2 2 4 4 6 3 1 4 6 5 2 3 5 0 2 4 5 7 8 8 9 10 12 12 11 11 8 8 9 9 8 7 6 3 3 5 6 9 12 13 15 15
3 3 2 2 2 5 3 4 4 4 5 7 6 5 6 1 2 7 2 5 8 8 8 8 8 9 10 10 9 7 6 6 5 4 3 3 3 4 5 7 8 10 12 14
3 5 3 1 1 4 3 2 5 4 4 6 10 8 7 4 2 4 2 3 5 7 8 8 8 7 8 8 9 9 8 8 8 8 9 9 9 9 9 10 11 11 12 13
2 3 3 2 3 7 5 7 6 1 5 11 15 13 10 4 7 2 5 5 5 5 8 8 7 6 7 8 8 9 9 10 10 10 12 13 14 15 15 15 16 16 16 17
5 5 3 1 1 6 10 5 6 5 4 12 15 15 15 12 9 9 6 5 5 6 6 8 8 7 6 7 7 8 9 10 11 12 13 14 14 16 17 18 18 18 18 19
3 6 4 8 6 5 26 8 18 7 7 12 15 14 15 12 12 11 11 10 7 6 7 8 8 6 7 8 10 11 13 13 13 12 12 12 12 12 14 16 16 17 18 19
4 6 3 2 3 13 22 29 17 17 15 14 12 14 14 14 13 13 13 14 13 11 9 8 9 6 7 9 11 14 16 17 16 13 11 11 11 10 11 11 13 16 17 18
5 8 5 6 11 15 22 24 28 21 17 15 14 15 15 14 14 13 13 12 13 15 13 11 10 9 8 10 12 14 18 19 15 14 12 13 12 10 9 9 11 13 14 18
11 7 5 7 14 8 9 7 27 26 24 18 16 16 14 13 11 9 9 8 9 10 11 12 11 11 11 11 12 14 17 16 16 15 14 15 14 14 13 13 13 13 14 15
Wind_Direction
201 219 252 239 216 221 247 265 272 290 289 306 255 253 270 289 261 263 261 260 245 244 203 188 180 187 194 215 262 238 202 171 185 188 190 196 196 194 189 187 190 192 191 192
244 244 253 250 263 258 261 253 284 289 274 252 271 275 327 315 271 266 232 259 232 199 137 162 180 186 193 195 194 236 212 191 205 206 195 197 198 186 185 188 192 192 194 197
196 259 296 35 329 344 290 252 327 310 320 299 307 292 6 357 10 359 330 311 208 155 161 162 159 171 181 173 200 220 222 213 206 208 200 198 206 186 183 190 188 192 198 204
253 271 347 334 310 28 301 268 339 319 347 311 2 294 6 355 10 8 8 356 152 154 151 152 165 167 175 186 196 213 226 208 207 199 195 195 196 195 185 192 201 199 204 207
259 287 296 333 274 293 262 284 272 279 295 322 355 65 350 357 26 3 9 358 37 158 153 161 164 152 175 179 200 206 209 206 207 195 192 190 191 197 203 195 202 207 206 205
263 286 350 294 285 279 316 263 306 229 131 52 6 41 351 359 4 14 5 7 15 190 148 147 143 125 152 190 190 212 223 218 212 207 207 199 197 195 203 209 207 204 202 199
337 323 324 349 334 327 357 33 8 19 33 83 344 59 22 352 360 11 6 357 13 14 170 137 141 161 160 170 174 226 220 214 204 193 203 196 192 190 192 204 199 196 196 193
49 347 358 327 331 272 310 17 81 101 103 81 26 42 27 4 17 5 16 16 16 25 94 137 167 172 157 153 184 124 55 135 177 191 183 190 190 190 194 204 205 200 199 197
12 306 341 351 327 27 321 31 21 31 3 64 18 15 343 358 9 359 3 30 12 38 47 58 240 217 174 240 261 220 206 341 207 186 194 193 191 190 196 201 201 208 211 210
317 336 8 311 9 1 72 302 48 5 71 71 36 37 16 354 1 16 14 16 18 32 42 55 44 36 210 228 271 285 261 259 250 196 191 187 186 187 195 200 203 206 210 206
351 86 314 10 15 14 358 11 21 100 34 126 134 56 13 358 2 6 13 23 30 37 38 40 47 48 51 352 293 306 263 243 227 211 194 198 201 192 186 190 199 206 207 216
325 110 23 326 289 322 89 357 69 93 316 31 126 70 15 350 25 21 13 23 38 45 46 50 49 43 51 53 59 31 193 235 254 218 203 190 201 214 217 223 236 234 237 226
324 33 22 342 347 1 29 332 25 110 37 29 99 220 27 3 33 22 30 42 45 44 41 48 52 51 52 50 35 34 26 245 244 234 215 211 218 229 224 224 232 233 238 239
82 78 138 166 213 232 331 331 9 87 79 206 169 271 337 1 18 29 36 40 42 46 45 43 47 50 52 55 38 18 16 13 32 229 222 233 228 225 272 242 259 256 250 253
76 79 2 284 289 292 251 296 341 61 179 122 220 228 339 337 18 26 46 41 38 36 37 37 39 41 47 51 55 50 38 17 54 97 173 160 142 160 203 236 253 254 249 255
10 142 63 325 311 14 304 299 293 270 247 283 239 270 192 320 69 52 49 45 36 28 31 33 35 37 40 43 47 47 49 54 91 154 153 185 192 207 236 246 259 265 279 252
58 111 60 292 348 352 353 228 202 244 207 187 227 233 159 273 93 26 21 40 30 20 18 21 27 32 32 33 33 45 49 50 53 58 116 212 226 237 233 226 251 301 308 298
116 88 108 241 8 20 247 296 226 222 243 218 208 223 217 110 73 78 51 31 26 17 9 11 13 16 16 21 23 28 29 36 46 54 56 47 313 288 261 249 240 239 245 257
68 108 58 103 207 290 272 238 199 178 289 200 197 208 228 253 277 264 10 31 19 11 9 360 352 356 6 8 10 4 0 349 346 349 360 334 306 287 272 261 252 248 251 257
76 79 112 70 132 218 245 190 142 94 290 191 184 196 207 137 212 261 269 324 333 347 356 359 1 348 340 337 354 356 343 327 318 308 298 291 282 271 267 267 261 256 257 259
27 12 143 179 256 285 241 153 134 77 239 176 189 201 201 204 212 229 284 299 323 326 332 348 346 347 2 3 354 338 327 328 320 305 296 287 277 274 273 267 264 262 259 256
183 151 211 104 14 298 158 114 169 222 155 181 195 203 211 236 244 259 258 269 295 322 316 326 334 337 349 357 0 354 345 337 328 322 313 299 289 284 278 273 271 271 269 264
249 192 187 188 218 236 187 207 214 207 197 198 212 219 225 233 236 243 253 259 266 277 300 304 311 315 336 342 345 350 351 346 339 336 331 319 305 291 281 277 273 271 270 268
247 184 222 358 260 232 231 228 241 224 224 224 230 226 228 232 234 244 252 258 263 262 267 285 280 285 319 331 338 337 337 338 338 339 335 328 317 310 303 292 278 272 269 264
209 151 203 260 277 265 258 237 235 219 219 228 224 227 232 244 252 262 268 265 262 256 253 268 284 270 280 297 317 336 337 334 333 336 336 339 333 323 318 309 302 295 285 271
187 194 178 225 226 221 252 284 231 219 224 232 232 229 234 245 252 261 271 285 279 252 243 255 273 275 266 271 292 317 331 336 336 326 321 326 330 328 320 306 298 293 291 284